Date,TemperatureHighF,TemperatureAvgF,TemperatureLowF,DewpointHighF,DewpointAvgF,DewpointLowF,HumidityHigh,HumidityAvg,HumidityLow,PressureMaxIn,PressureMinIn,WindSpeedMaxMPH,WindSpeedAvgMPH,GustSpeedMaxMPH,PrecipitationSumIn
2013-12-1,33,26,20,-100,-100,-100,0,0,100,0.00,40.00,0,-999,0,0.00
2013-12-2,37,29,20,-100,-100,-100,0,0,100,0.00,40.00,0,-999,0,0.00
2013-12-3,33,33,32,-100,-100,-100,0,0,100,0.00,40.00,0,-999,0,0.00
2013-12-4,35,32,29,-100,-100,-100,0,0,100,0.00,40.00,0,-999,0,0.00
2013-12-5,29,14,7,-100,-100,-100,0,0,100,0.00,40.00,0,-999,0,0.00
2013-12-6,9,5,2,-100,-100,-100,0,0,100,0.00,40.00,0,-999,0,0.00
2013-12-7,9,2,-4,-100,-100,-100,0,0,100,0.00,40.00,0,-999,0,0.00
2013-12-8,14,9,2,-100,-100,-100,0,0,100,0.00,40.00,0,-999,0,0.00
2013-12-9,14,8,-2,-100,-100,-100,0,0,100,0.00,40.00,0,-999,0,0.00
2013-12-10,13,8,-2,-100,-100,-100,0,0,100,0.00,40.00,0,-999,0,0.00
2013-12-11,13,2,-7,-100,-100,-100,0,0,100,0.00,40.00,0,-999,0,0.00
2013-12-12,22,12,2,-100,-100,-100,0,0,100,0.00,40.00,0,-999,0,0.00
2013-12-13,22,17,14,-100,-100,-100,0,0,100,0.00,40.00,0,-999,0,0.00
2013-12-14,23,17,14,-100,-100,-100,0,0,100,0.00,40.00,0,-999,0,0.00
2013-12-15,11,2,-4,-100,-100,-100,0,0,100,0.00,40.00,0,-999,0,0.00
2013-12-16,18,8,-5,-100,-100,-100,0,0,100,0.00,40.00,0,-999,0,0.00
2013-12-17,31,25,13,-100,-100,-100,0,0,100,0.00,40.00,0,-999,0,0.00
2013-12-18,33,18,4,-100,-100,-100,0,0,100,0.00,40.00,0,-999,0,0.00
2013-12-19,29,23,20,-100,-100,-100,0,0,100,0.00,40.00,0,-999,0,0.00
2013-12-20,25,22,20,-100,-100,-100,0,0,100,0.00,40.00,0,-999,0,0.00
2013-12-21,27,24,22,-100,-100,-100,0,0,100,0.00,40.00,0,-999,0,0.00
2013-12-22,27,24,20,-100,-100,-100,0,0,100,0.00,40.00,0,-999,0,0.00
2013-12-23,20,9,-2,-100,-100,-100,0,0,100,0.00,40.00,0,-999,0,0.00
2013-12-24,16,1,-13,-100,-100,-100,0,0,100,0.00,40.00,0,-999,0,0.00
2013-12-25,22,16,11,-100,-100,-100,0,0,100,0.00,40.00,0,-999,0,0.00
2013-12-26,25,18,13,-100,-100,-100,0,0,100,0.00,40.00,0,-999,0,0.00
2013-12-27,35,22,7,-100,-100,-100,0,0,100,0.00,40.00,0,-999,0,0.00
2013-12-28,42,33,20,-100,-100,-100,0,0,100,0.00,40.00,0,-999,0,0.00
2013-12-29,31,12,-7,-100,-100,-100,0,0,100,0.00,40.00,0,-999,0,0.00
2013-12-30,5,-3,-18,-100,-100,-100,0,0,100,0.00,40.00,0,-999,0,0.00
2013-12-31,4,0,-13,-100,-100,-100,0,0,100,0.00,40.00,0,-999,0,0.00